Location: Bukit Nyuki
(2.5885°N, 113.7476°E)
Time: 16:50:34
(UTC+00:00)

ARIANE 5 DEB (SYLDA) - Pass Details

Date: 18 May 2021
Orbit: 368 x 19912 km, 5.9° (Epoch: 20 June)

Event Time Altitude Azimuth Distance (km) Brightness Sun altitude
Exits shadow 21:18:46 19° 229° (SW) 1,691 4.2 -13.8°
Maximum altitude 21:20:37 24° 192° (SSW) 1,141 3.6 -13.4°
Drops below altitude 10° 21:23:00 10° 132° (SE) 1,449 4.8 -12.8°
Sets 21:24:46 0° 114° (ESE) 2,189 6.1 -12.4°
